• în Republica Moldova
  • Lista ţărilor
  • Pe 7 zile
  • Temperatura apei
  • Hartă satelitară
  • Meteo pe hartă
  • Widget-uri
  • user-avatar
    Intrare

    Meteo pe oră la Salzburg

    Astăzi, 24 Ianuarie, Miercuri

    Timp Temperatura Precipitaţii Vânt Presiune Umiditate
    00:00 -8°C° 0 mm 2 m/s 629 mmHg 77%
    01:00 -8°C° 0 mm 2 m/s 629 mmHg 74%
    02:00 -8°C° 0 mm 2 m/s 629 mmHg 72%
    03:00 -8°C° 0 mm 2 m/s 629 mmHg 70%
    04:00 -7°C° 0 mm 2 m/s 629 mmHg 68%
    05:00 -7°C° 0 mm 2 m/s 629 mmHg 67%
    06:00 -7°C° 0 mm 2 m/s 629 mmHg 67%
    07:00 -7°C° 0 mm 2 m/s 629 mmHg 66%
    08:00 -5°C° 0 mm 2 m/s 630 mmHg 69%
    09:00 -2°C° 0 mm 1 m/s 630 mmHg 73%
    10:00 0°C° 0 mm 1 m/s 631 mmHg 76%
    11:00 +1°C° 0 mm 1 m/s 630 mmHg 81%
    12:00 +2°C° 0 mm 1 m/s 630 mmHg 86%
    13:00 +2°C° 0 mm 1 m/s 630 mmHg 91%
    14:00 +2°C° 0 mm 1 m/s 630 mmHg 90%
    15:00 -1°C° 0 mm 2 m/s 629 mmHg 88%
    16:00 -1°C° 0 mm 2 m/s 629 mmHg 87%
    17:00 -2°C° 0 mm 2 m/s 629 mmHg 83%
    18:00 -3°C° 0 mm 2 m/s 628 mmHg 80%
    19:00 -5°C° 0 mm 2 m/s 628 mmHg 76%
    20:00 -5°C° 0 mm 2 m/s 628 mmHg 74%
    21:00 -5°C° 0 mm 2 m/s 627 mmHg 73%
    22:00 -5°C° 0 mm 2 m/s 627 mmHg 72%
    23:00 -5°C° 0 mm 2 m/s 627 mmHg 71%

    Mâine, 25 Ianuarie, Joi

    Timp Temperatura Precipitaţii Vânt Presiune Umiditate
    00:00 -5°C° 0 mm 2 m/s 627 mmHg 70%
    01:00 -5°C° 0 mm 2 m/s 627 mmHg 70%
    02:00 -6°C° 0 mm 2 m/s 627 mmHg 69%
    03:00 -6°C° 0 mm 2 m/s 626 mmHg 68%
    04:00 -6°C° 0 mm 2 m/s 626 mmHg 67%
    05:00 -6°C° 0 mm 2 m/s 626 mmHg 67%
    06:00 -6°C° 0 mm 2 m/s 626 mmHg 67%
    07:00 -6°C° 0 mm 2 m/s 626 mmHg 67%
    08:00 -5°C° 0 mm 2 m/s 626 mmHg 70%
    09:00 -4°C° 0 mm 2 m/s 626 mmHg 73%
    10:00 -2°C° 0 mm 2 m/s 626 mmHg 77%
    11:00 -2°C° 0 mm 2 m/s 626 mmHg 81%
    12:00 -1°C° 0 mm 2 m/s 625 mmHg 86%
    13:00 +1°C° 0 mm 2 m/s 625 mmHg 90%
    14:00 -1°C° 0 mm 2 m/s 624 mmHg 91%
    15:00 -1°C° 0 mm 2 m/s 624 mmHg 91%
    16:00 -2°C° 0 mm 2 m/s 624 mmHg 92%
    17:00 -3°C° 0 mm 2 m/s 623 mmHg 91%
    18:00 -4°C° 0 mm 2 m/s 623 mmHg 90%
    19:00 -5°C° 0 mm 2 m/s 623 mmHg 90%
    20:00 -5°C° 0 mm 2 m/s 622 mmHg 89%
    21:00 -5°C° 0 mm 2 m/s 622 mmHg 89%
    22:00 -5°C° 0 mm 2 m/s 622 mmHg 89%
    23:00 -5°C° 0 mm 2 m/s 622 mmHg 89%

    Poimâine, 26 Ianuarie, Vineri

    Timp Temperatura Precipitaţii Vânt Presiune Umiditate
    00:00 -5°C° 0 mm 2 m/s 622 mmHg 88%
    01:00 -5°C° 0 mm 2 m/s 621 mmHg 88%
    02:00 -5°C° 0 mm 2 m/s 621 mmHg 88%
    03:00 -4°C° 0 mm 2 m/s 621 mmHg 88%
    04:00 -4°C° 0 mm 2 m/s 621 mmHg 88%
    05:00 -4°C° 0 mm 2 m/s 621 mmHg 88%
    06:00 -4°C° 0 mm 2 m/s 621 mmHg 89%
    07:00 -4°C° 0 mm 2 m/s 621 mmHg 89%
    08:00 -3°C° 0 mm 2 m/s 621 mmHg 90%
    09:00 -3°C° 0 mm 2 m/s 622 mmHg 91%
    10:00 -2°C° 0 mm 2 m/s 622 mmHg 92%
    11:00 -2°C° 0 mm 2 m/s 622 mmHg 92%
    12:00 -1°C° 0 mm 2 m/s 622 mmHg 93%
    13:00 -1°C° 0 mm 2 m/s 622 mmHg 94%
    14:00 -1°C° 0 mm 2 m/s 622 mmHg 94%
    15:00 -2°C° 0 mm 2 m/s 622 mmHg 95%
    16:00 -2°C° 0 mm 2 m/s 622 mmHg 96%
    17:00 -1°C° 0,1 mm 1 m/s 622 mmHg 96%
    18:00 -1°C° 0,1 mm 1 m/s 623 mmHg 97%
    19:00 -2°C° 0,1 mm 1 m/s 623 mmHg 97%
    20:00 -2°C° 0,2 mm 1 m/s 623 mmHg 97%
    21:00 -2°C° 0,2 mm 1 m/s 623 mmHg 96%
    22:00 -2°C° 0,2 mm 1 m/s 623 mmHg 96%
    23:00 -2°C° 0,6 mm 1 m/s 624 mmHg 96%

    27 Ianuarie, Sâmbătă

    Timp Temperatura Precipitaţii Vânt Presiune Umiditate
    00:00 -2°C° 0,6 mm 1 m/s 624 mmHg 96%
    01:00 -2°C° 0,6 mm 1 m/s 624 mmHg 97%
    02:00 -2°C° 0,9 mm 1 m/s 624 mmHg 97%
    03:00 -2°C° 0,9 mm 1 m/s 625 mmHg 97%
    04:00 -2°C° 0,9 mm 1 m/s 625 mmHg 97%
    05:00 -3°C° 0,5 mm 0 m/s 625 mmHg 97%
    06:00 -3°C° 0,5 mm 0 m/s 625 mmHg 97%
    07:00 -3°C° 0,5 mm 0 m/s 626 mmHg 98%
    08:00 -3°C° 0,3 mm 0 m/s 626 mmHg 97%
    09:00 -2°C° 0,3 mm 1 m/s 627 mmHg 97%
    10:00 -1°C° 0,3 mm 1 m/s 628 mmHg 97%
    11:00 -1°C° 0,1 mm 1 m/s 628 mmHg 96%
    12:00 -1°C° 0,1 mm 1 m/s 628 mmHg 96%
    13:00 0°C° 0,1 mm 1 m/s 629 mmHg 96%
    14:00 0°C° 0,1 mm 1 m/s 629 mmHg 96%
    15:00 0°C° 0,1 mm 1 m/s 629 mmHg 96%
    16:00 0°C° 0,1 mm 1 m/s 630 mmHg 96%
    17:00 -1°C° 0 mm 1 m/s 630 mmHg 96%
    18:00 -3°C° 0 mm 0 m/s 630 mmHg 96%
    19:00 -3°C° 0 mm 0 m/s 631 mmHg 97%
    20:00 -3°C° 0 mm 0 m/s 631 mmHg 96%
    21:00 -4°C° 0 mm 0 m/s 631 mmHg 96%
    22:00 -4°C° 0 mm 0 m/s 632 mmHg 96%
    23:00 -4°C° 0 mm 0 m/s 632 mmHg 94%

    28 Ianuarie, Duminică

    Timp Temperatura Precipitaţii Vânt Presiune Umiditate
    00:00 -4°C° 0 mm 1 m/s 632 mmHg 93%
    01:00 -4°C° 0 mm 1 m/s 632 mmHg 92%
    02:00 -6°C° 0 mm 1 m/s 632 mmHg 91%
    03:00 -6°C° 0 mm 1 m/s 632 mmHg 90%
    04:00 -6°C° 0 mm 1 m/s 632 mmHg 89%
    05:00 -6°C° 0 mm 1 m/s 632 mmHg 88%
    06:00 -6°C° 0 mm 1 m/s 632 mmHg 87%
    07:00 -6°C° 0 mm 1 m/s 633 mmHg 87%
    08:00 -4°C° 0 mm 1 m/s 633 mmHg 86%
    09:00 -3°C° 0 mm 0 m/s 634 mmHg 86%
    10:00 -2°C° 0 mm 0 m/s 635 mmHg 85%
    11:00 -1°C° 0 mm 0 m/s 635 mmHg 88%
    12:00 -1°C° 0 mm 0 m/s 635 mmHg 90%
    13:00 0°C° 0 mm 0 m/s 635 mmHg 92%
    14:00 0°C° 0 mm 0 m/s 635 mmHg 93%
    15:00 -1°C° 0 mm 0 m/s 635 mmHg 94%
    16:00 -1°C° 0 mm 0 m/s 635 mmHg 94%
    17:00 -2°C° 0 mm 0 m/s 635 mmHg 93%
    18:00 -3°C° 0 mm 0 m/s 634 mmHg 92%
    19:00 -3°C° 0 mm 1 m/s 634 mmHg 90%
    20:00 -4°C° 0 mm 1 m/s 634 mmHg 88%
    21:00 -4°C° 0 mm 1 m/s 634 mmHg 85%
    22:00 -4°C° 0 mm 1 m/s 634 mmHg 82%
    23:00 -4°C° 0 mm 1 m/s 634 mmHg 80%

    29 Ianuarie, Luni

    Timp Temperatura Precipitaţii Vânt Presiune Umiditate
    00:00 -4°C° 0 mm 1 m/s 634 mmHg 79%
    01:00 -4°C° 0 mm 1 m/s 634 mmHg 77%
    02:00 -4°C° 0 mm 1 m/s 634 mmHg 76%
    03:00 -4°C° 0 mm 1 m/s 634 mmHg 74%
    04:00 -4°C° 0 mm 1 m/s 634 mmHg 73%
    05:00 -4°C° 0 mm 1 m/s 634 mmHg 72%
    06:00 -4°C° 0 mm 1 m/s 634 mmHg 72%
    07:00 -6°C° 0 mm 1 m/s 633 mmHg 71%
    08:00 -3°C° 0 mm 1 m/s 634 mmHg 73%
    09:00 -2°C° 0 mm 1 m/s 634 mmHg 74%
    10:00 0°C° 0 mm 1 m/s 635 mmHg 76%
    11:00 0°C° 0 mm 1 m/s 635 mmHg 80%
    12:00 +1°C° 0 mm 1 m/s 634 mmHg 84%
    13:00 +1°C° 0 mm 0 m/s 634 mmHg 87%
    14:00 0°C° 0 mm 0 m/s 634 mmHg 87%
    15:00 0°C° 0 mm 0 m/s 634 mmHg 87%
    16:00 -1°C° 0 mm 0 m/s 633 mmHg 86%
    17:00 -1°C° 0 mm 1 m/s 633 mmHg 85%
    18:00 -2°C° 0 mm 1 m/s 633 mmHg 84%
    19:00 -4°C° 0 mm 1 m/s 632 mmHg 82%
    20:00 -4°C° 0 mm 1 m/s 632 mmHg 80%
    21:00 -4°C° 0 mm 1 m/s 632 mmHg 79%
    22:00 -4°C° 0 mm 1 m/s 632 mmHg 77%
    23:00 -4°C° 0 mm 1 m/s 632 mmHg 75%
    Arată mai mult